Overview Statistics Trail Chart Weather Telemetry Raw packets
 

This is the latest recevied weather packets stored in our database for station/object VE8SKI. If no packets are shown the sender has not sent any weather packets the latest 10 day(s).

<< 31 32 33 34 35 36 37 >>
Time Temp. Humidity Pressure Rain* Wind** Luminosity Snow
1777890172 -2.78° C 90% 1025.8 hPa 0 mm 0.89 m/s, 53° - -
1777889872 -2.78° C 90% 1025.8 hPa 0 mm 1.34 m/s, 83° - -
1777889573 -2.78° C 90% 1025.7 hPa 0 mm 1.34 m/s, 66° - -
1777889273 -2.78° C 90% 1025.7 hPa 0 mm 1.34 m/s, 94° - -
1777888973 -2.78° C 90% 1025.7 hPa 0 mm 0.89 m/s, 89° - -
1777888673 -2.78° C 90% 1025.6 hPa 0 mm 0.89 m/s, 75° - -
1777888371 -2.78° C 90% 1025.6 hPa 0 mm 0.89 m/s, 110° - -
1777888071 -2.78° C 91% 1025.6 hPa 0 mm 0 m/s - -
1777887771 -2.78° C 91% 1025.6 hPa 0 mm 0.89 m/s, 70° - -
1777887472 -2.78° C 91% 1025.5 hPa 0 mm 0 m/s - -
1777887172 -2.78° C 91% 1025.5 hPa 0 mm 0 m/s - -
1777886872 -2.78° C 91% 1025.4 hPa 0 mm 0 m/s - -
1777886570 -2.78° C 90% 1025.4 hPa 0 mm 0 m/s - -
1777886270 -2.78° C 90% 1025.3 hPa 0 mm 0 m/s - -
1777885970 -2.78° C 89% 1025.3 hPa 0 mm 0 m/s - -
1777885670 -2.78° C 89% 1025.3 hPa 0 mm 0.89 m/s, 69° - -
1777885371 -2.22° C 89% 1025.2 hPa 0 mm 0.89 m/s, 127° - -
1777885071 -2.22° C 88% 1025.3 hPa 0 mm 0 m/s - -
1777884768 -2.22° C 88% 1025.2 hPa 0 mm 0.45 m/s, 97° - -
1777884468 -2.22° C 87% 1025.1 hPa 0 mm 1.34 m/s, 86° - -
1777884169 -2.22° C 87% 1025.1 hPa 0 mm 0.89 m/s, 63° - -
1777883869 -2.22° C 86% 1025.1 hPa 0 mm 0.45 m/s, 62° - -
1777883569 -2.22° C 86% 1025 hPa 0 mm 0.89 m/s, 148° - -
1777883270 -2.22° C 85% 1025 hPa 0 mm 1.34 m/s, 63° - -
1777882967 -2.22° C 85% 1025 hPa 0 mm 0.45 m/s, 90° - -

* Rain latest hour (hover to see other rain measurements)
** Current wind speed in m/s (hover to see current wind gust speed)